SB KEPS @ AMSAT $ORB06306.N 2Line Orbital Elements 06306.AMSAT
HR AMSAT ORBITAL ELEMENTS FOR AMATEUR SATELLITES IN NASA FORMAT FROM WA5QGD FORT WORTH,TX November 2, 2006 Send SUBSCRIBE KEPS/UNSUBSCRIBE KEPS to majordomo@amsat.org only BID: ORB06306.N
DECODE 2-LINE ELSETS WITH THE FOLLOWING KEY: 1 AAAAAU 00 0 0 BBBBB.BBBBBBBB .CCCCCCCC 00000-0 00000-0 0 DDDZ 2 AAAAA EEE.EEEE FFF.FFFF GGGGGGG HHH.HHHH III.IIII JJ.JJJJJJJJKKKKKZ KEY: A-CATALOGNUM B-EPOCHTIME C-DECAY D-ELSETNUM E-INCLINATION F-RAAN G-ECCENTRICITY H-ARGPERIGEE I-MNANOM J-MNMOTION K-ORBITNUM Z-CHECKSUM
TO ALL RADIO AMATEURS BT
AO-07 1 07530U 74089B 06305.69309138 -.00000028 00000-0 10000-3 0 07191 2 07530 101.5514 345.1035 0012029 339.4563 020.6021 12.53571636462611 UO-11 1 14781U 84021B 06305.75027033 .00000417 00000-0 63197-4 0 2149 2 14781 098.2060 318.8855 0009198 176.8696 183.2565 14.79477528216100 RS-10/11 1 18129U 87054A 06305.86653501 .00000051 00000-0 38742-4 0 01405 2 18129 082.9235 226.2987 0013477 070.1318 290.1286 13.72780011970048 RS-15 1 23439U 94085A 06305.66563476 -.00000039 00000-0 10597-3 0 00454 2 23439 064.8205 014.8762 0166230 230.2937 128.3249 11.27551660488047 FO-29 1 24278U 96046B 06306.90656677 .00000099 00000-0 14000-3 0 3540 2 24278 098.5200 292.3033 0350282 310.0443 047.0449 13.52925688504305 SO-33 1 25509U 98061B 06306.78247988 .00000294 00000-0 44093-4 0 7822 2 25509 031.4330 065.7648 0355362 248.1191 108.1293 14.28131197418861 VO-52 1 28650U 05017B 06305.80003028 .00000136 00000-0 24243-4 0 04690 2 28650 097.8591 016.2979 0026187 273.8574 085.9607 14.81196278080758 AO-16 1 20439U 90005D 06306.66340080 .00000009 00000-0 18335-4 0 8840 2 20439 098.1898 308.8387 0011468 137.9015 222.3057 14.31737746876135 LO-19 1 20442U 90005G 06305.55210676 .00000037 00000-0 28944-4 0 08183 2 20442 098.1864 317.3102 0012472 141.1156 219.0921 14.31979910876113 AO-27 1 22825U 93061C 06305.45734868 .00000136 00000-0 69858-4 0 05353 2 22825 098.3019 280.6650 0007733 212.1180 147.9526 14.29188436682964 IO-26 1 22826U 93061D 06305.47373876 .00000014 00000-0 21801-4 0 02273 2 22826 098.2953 281.8425 0008231 209.7097 150.3617 14.29432420683041 PO-28 1 22829U 93061G 06306.52034583 .00000100 00000-0 54345-4 0 5113 2 22829 098.2850 284.0341 0009776 179.3901 180.7294 14.30129479683411 GO-32 1 25397U 98043D 06305.71323239 -.00000111 00000-0 -30553-4 0 01496 2 25397 098.4514 357.4719 0001587 142.8917 217.2373 14.23112693431801 MO-46 1 26548U 00057D 06306.75428186 -.00000045 00000-0 12875-4 0 6368 2 26548 064.5571 163.1315 0039714 227.4952 132.2771 14.83039392329953 NO-44 1 26931U 01043C 06305.69667251 .00000188 00000-0 10591-3 0 4389 2 26931 067.0548 013.4821 0004828 258.4929 101.5622 14.29459087265585 SO-50 1 27607U 02058C 06305.75056825 .00000055 00000-0 30482-4 0 01611 2 27607 064.5583 055.5048 0034930 087.9576 272.5528 14.71187804207666 CO-55 1 27844U 03031E 06305.51989008 .00000043 00000-0 40494-4 0 08852 2 27844 098.7221 311.9323 0010476 031.6569 328.5233 14.20466251173150 CO-57 1 27848U 03031J 06305.51189711 .00000021 00000-0 30478-4 0 08508 2 27848 098.7205 311.2094 0010436 034.1729 326.0121 14.20291628173137 AO-51 1 28375U 04025K 06306.71785453 .00000027 00000-0 20844-4 0 6663 2 28375 098.1468 352.3161 0084000 147.7766 212.8601 14.40539374123101 CO-56 1 28941U 06005C 06305.63081379 .00029557 25583-5 35194-3 0 02462 2 28941 098.1636 337.6985 0262156 353.2239 006.5409 15.29863719038522 NOAA-10 1 16969U 86073A 06305.61444488 .00000021 00000-0 26671-4 0 04071 2 16969 098.7589 317.5355 0013131 108.9484 251.3103 14.27307331046760 NOAA-11 1 19531U 88089A 06305.76964780 -.00000096 00000-0 -27105-4 0 03599 2 19531 098.8227 032.6714 0011251 321.1529 038.8829 14.14823035933995 NOAA-12 1 21263U 91032A 06305.81925645 -.00000020 00000-0 10249-4 0 08535 2 21263 098.7433 298.5991 0013476 049.8140 310.4224 14.25512001803851 MET-3/5 1 21655U 91056A 06305.94722666 .00000051 00000-0 10000-3 0 02629 2 21655 082.5568 163.4883 0014334 056.5592 303.6900 13.17008391731493 MET-2/21 1 22782U 93055A 06306.80567147 -.00000019 00000-0 -31128-4 0 6589 2 22782 082.5492 221.4771 0022894 147.6328 212.6254 13.83609589665217 OKEAN-4 1 23317U 94066A 06305.71632859 .00000137 00000-0 14162-4 0 00941 2 23317 082.5379 148.7431 0020774 283.8436 076.0415 14.82415265650354 NOAA-14 1 23455U 94089A 06305.96041482 -.00000054 00000-0 -44760-5 0 03538 2 23455 099.0230 005.5919 0009584 026.7656 333.4004 14.13673400610532 SICH-1 1 23657U 95046A 06305.66878549 .00000238 00000-0 27385-4 0 08962 2 23657 082.5251 289.6755 0022239 272.0085 087.8587 14.81405675602341 NOAA-15 1 25338U 98030A 06305.82514961 .00000068 00000-0 47521-4 0 07277 2 25338 098.5239 304.0549 0010397 337.4415 022.6316 14.24608689440311 RESURS 1 25394U 98043A 06305.71158430 -.00000000 00000-0 18267-4 0 05085 2 25394 098.4779 003.8473 0002044 111.9427 248.1968 14.24115798431973 FENGYUN1 1 25730U 99025A 06305.96507334 .00000069 00000-0 60769-4 0 08641 2 25730 098.6386 293.3812 0015274 107.4754 252.8112 14.11817001385454 OKEAN-0 1 25860U 99039A 06306.75192654 .00000078 00000-0 19273-4 0 8917 2 25860 097.7323 314.6242 0001761 055.8989 304.2380 14.73399807392156 NOAA-16 1 26536U 00055A 06305.86330176 -.00000135 00000-0 -48275-4 0 01173 2 26536 099.0876 274.2241 0011251 091.4214 268.8234 14.12378529315011 NOAA-17 1 27453U 02032A 06305.90869695 -.00000027 00000-0 69418-5 0 01382 2 27453 098.6089 015.3556 0012229 038.6212 321.5820 14.23821901226378 NOAA-18 1 28654U 05018A 06305.91826546 -.00000030 00000-0 72392-5 0 07006 2 28654 098.8023 246.3226 0014006 188.9579 171.1358 14.11003299074805 HUBBLE 1 20580U 90037B 06305.95044574 .00000535 00000-0 28832-4 0 07321 2 20580 028.4687 231.7855 0003958 203.7590 156.2815 15.00120972705809 UARS 1 21701U 91063B 06305.92799370 .00007927 00000-0 14114-3 0 09157 2 21701 056.9751 218.1392 0106181 113.2522 247.9753 15.45164979830587 PO-34 1 25520U 98064B 06305.93192940 .00000712 00000-0 25497-4 0 06046 2 25520 028.4593 189.5597 0005026 298.6388 061.3699 15.16826818442985 ISS 1 25544U 98067A 06307.03084147 .00017952 00000-0 10865-3 0 9800 2 25544 051.6344 191.9935 0012779 166.0519 336.4589 15.77580220455061 OO-38 1 26063U 00004C 06305.50646893 .00000009 00000-0 23220-4 0 07570 2 26063 100.2021 261.3352 0037262 080.5946 279.9442 14.35782452354380 NO-45 1 26932U 01043D 06306.68329518 -.00000021 00000-0 23965-4 0 4478 2 26932 067.0574 010.6693 0005027 233.6719 126.3921 14.29538976265767 UWE-1 1 28892U 05043C 06306.76177241 .00000257 00000-0 63772-4 0 5912 2 28892 098.1462 202.6135 0018269 097.3720 262.9572 14.59414584 54180 CO-58 1 28895U 05043F 06306.74808329 .00000220 00000-0 56029-4 0 5750 2 28895 098.1511 202.7302 0018927 098.2549 262.0810 14.59464273 54068 NCUBE2 1 28897U 05043H 06305.27098195 .00000173 00000-0 45990-4 0 01423 2 28897 098.1484 201.2528 0018004 103.4026 256.9180 14.59620365046124 /EX